Weather History for Martinsburg, WV

Change the Weather History Date:

Saturday, December 25, 2010

  Actual Average Record
Temperature  
Mean Temperature 30 °F 32 °F  
Max Temperature 32 °F 41 °F 67 °F (1955)
Min Temperature 27 °F 23 °F -12 °F (1983)
Degree Days  
Heating Degree Days 35 33  
Month to date heating degree days 900 755  
Since 1 July heating degree days 1801 1825  
Cooling Degree Days 0 0  
Month to date cooling degree days 0 0  
Year to date cooling degree days 1311 895  
Moisture  
Dew Point 22 °F    
Average Humidity 74    
Maximum Humidity 85    
Minimum Humidity 63    
Precipitation  
Precipitation T in 0.08 in 0.71 in (1945)
Month to date precipitation 2.23 2.29  
Year to date precipitation 36.59 38.28  
Sea Level Pressure  
Sea Level Pressure 30.05 in    
Wind  
Wind Speed 1 mph (NW)    
Max Wind Speed 8 mph    
Max Gust Speed 9 mph    
Visibility 8 miles    
Events Snow    
T = Trace of Precipitation, MM = Missing Value Source: NWS Daily Summary

Daily Weather History Graph

Daily Weather History Graph

Search for Another Location

Airport:

Trip Planner

Search our weather history database for the weather conditions in past years. The results will help you decide how hot, cold, wet, or windy it might be!

Date:

Astronomy

Dec. 25, 2010 Rise Set
Actual Time 7:30 AM EST 4:53 PM EST
Civil Twilight 6:59 AM EST 5:24 PM EST
Nautical Twilight 6:26 AM EST 5:57 PM EST
Astronomical Twilight 5:53 AM EST 6:30 PM EST
Moon 10:08 PM EST (12/25) 10:21 AM EST (12/25)
Length of Visible Light 10h 24m
Length of Day
9h 23m
Waning Gibbous, 77% of the Moon is Illuminated
Dec 25
Waning Gibbous
Dec 27
Last Quarter
Jan 4
New
Jan 12
First Quarter
Jan 19
Full

Hourly Weather History & Observations

Time (EST) Temp. Windchill Dew Point Humidity Pressure Visibility Wind Dir Wind Speed Gust Speed Precip Events Conditions
12:53 AM 30.0 °F - 19.0 °F 64% 30.11 in 10.0 mi Calm Calm - N/A   Mostly Cloudy
1:53 AM 27.0 °F - 19.0 °F 72% 30.11 in 10.0 mi Calm Calm - N/A   Mostly Cloudy
2:53 AM 28.0 °F - 19.9 °F 72% 30.12 in 10.0 mi Calm Calm - N/A   Overcast
3:53 AM 28.0 °F - 19.9 °F 72% 30.11 in 10.0 mi Calm Calm - N/A   Overcast
4:53 AM 30.0 °F - 19.0 °F 64% 30.09 in 10.0 mi Calm Calm - N/A   Overcast
5:53 AM 28.0 °F - 19.9 °F 72% 30.08 in 10.0 mi Calm Calm - N/A   Overcast
6:53 AM 28.0 °F - 21.0 °F 75% 30.09 in 10.0 mi Calm Calm - N/A   Overcast
7:53 AM 28.9 °F - 21.0 °F 72% 30.08 in 2.5 mi Calm Calm - 0.00 in Snow Light Snow
8:15 AM 28.4 °F - 21.2 °F 74% 30.07 in 4.0 mi Calm Calm - 0.00 in Snow Light Snow
8:48 AM 28.4 °F - 23.0 °F 80% 30.07 in 1.8 mi Calm Calm - 0.00 in Snow Light Snow
8:49 AM 28.0 °F - 23.0 °F 81% 30.09 in 1.8 mi Calm Calm - 0.00 in Snow Light Snow
9:04 AM 28.4 °F 24.6 °F 24.8 °F 86% 30.07 in 3.0 mi NW 3.5 mph - 0.00 in Snow Light Snow
9:15 AM 28.4 °F - 24.8 °F 86% 30.07 in 1.5 mi Calm Calm - 0.00 in Snow Light Snow
9:21 AM 28.4 °F - 24.8 °F 86% 30.06 in 0.8 mi Calm Calm - 0.00 in Snow Light Snow
9:28 AM 28.4 °F - 24.8 °F 86% 30.06 in 1.2 mi Calm Calm - 0.00 in Snow Light Snow
9:35 AM 28.4 °F - 24.8 °F 86% 30.07 in 2.5 mi Calm Calm - 0.00 in Snow Light Snow
9:43 AM 28.4 °F - 24.8 °F 86% 30.07 in 4.0 mi Calm Calm - 0.00 in Snow Light Snow
9:53 AM 28.9 °F - 24.1 °F 82% 30.09 in 8.0 mi Calm Calm - 0.00 in   Overcast
10:53 AM 30.0 °F - 24.1 °F 79% 30.07 in 8.0 mi Calm Calm - N/A   Overcast
11:14 AM 30.2 °F - 24.8 °F 80% 30.04 in 9.0 mi Calm Calm - N/A   Overcast
11:53 AM 30.0 °F - 23.0 °F 75% 30.04 in 10.0 mi Calm Calm - N/A   Overcast
12:53 PM 30.9 °F 27.5 °F 21.0 °F 67% 30.03 in 10.0 mi NNW 3.5 mph - N/A   Overcast
1:14 PM 30.2 °F - 21.2 °F 69% 30.00 in 10.0 mi Calm Calm - N/A   Overcast
1:53 PM 30.9 °F - 21.9 °F 69% 30.00 in 10.0 mi Calm Calm - N/A   Overcast
2:53 PM 32.0 °F 27.5 °F 21.0 °F 64% 29.99 in 10.0 mi WNW 4.6 mph - N/A   Overcast
3:53 PM 32.0 °F 28.7 °F 21.0 °F 64% 30.00 in 10.0 mi WNW 3.5 mph - N/A   Overcast
4:53 PM 30.9 °F - 21.9 °F 69% 30.00 in 10.0 mi Calm Calm - N/A   Overcast
5:53 PM 30.0 °F - 23.0 °F 75% 30.01 in 10.0 mi Calm Calm - N/A   Overcast
6:53 PM 30.0 °F - 23.0 °F 75% 30.01 in 10.0 mi Calm Calm - N/A   Overcast
7:53 PM 30.0 °F - 23.0 °F 75% 30.00 in 10.0 mi Calm Calm - N/A   Overcast
8:10 PM 30.2 °F 25.4 °F 23.0 °F 75% 29.98 in 10.0 mi NNE 4.6 mph - N/A   Overcast
8:53 PM 28.9 °F - 24.1 °F 82% 29.99 in 9.0 mi Calm Calm - N/A   Overcast
9:53 PM 30.0 °F 26.5 °F 23.0 °F 75% 29.99 in 9.0 mi NW 3.5 mph - N/A   Overcast
10:53 PM 30.0 °F - 21.9 °F 72% 29.99 in 9.0 mi Calm Calm - N/A   Overcast
11:53 PM 30.0 °F 26.5 °F 19.9 °F 66% 29.98 in 10.0 mi WNW 3.5 mph - N/A   Overcast